Погода в Чебеньках

Россия / Оренбургская область     51°56′15″N   55°42′14″E
темп.,
°C
ветер,
м/с
пор.,
м/с
влажн.,
%
обл.,
%
осадки,
мм/ч
давл.,
гПа
погр.,
м
8 мая, сб
сб823:00+14в225341 0.0 101814
02:00+12в2256100 0.0 101810
05:00+12в2256100 0.0 101711
08:00+14в1253100 0.0 1017120
11:00+19всв1139100 0.0 1017681
14:00+21зсз1133100 0.0 10162147
17:00+21сз233178 0.0 10152460
20:00+19ссв114296 0.0 101513
9 мая, вс
вс923:00+16св365539 0.0 1016136
02:00+14св116554 0.2 101612
05:00+13с116669 0.2 101616
08:00+15сз22585 0.0 1016194
11:00+20с22425 0.0 10161120
14:00+22ссз22338 0.0 10152445
17:00+23ссз223111 0.0 10152575
20:00+20ссв22459 0.0 101625
10 мая, пн
пн1023:00+16в22544 0.0 101614
02:00+14в22581 0.0 101711
05:00+13в34630 0.0 101850
08:00+15вюв586011 0.0 1019293
11:00+20вюв454719 0.0 1020900
14:00+22в34385 0.0 10202239
17:00+23в343414 0.0 10202390
20:00+19вюв4860100 0.0 1021256
11 мая, вт
вт1123:00+15вюв4973100 0.0 1023191
02:00+13вюв35736 0.0 102386
05:00+12вюв227590 0.0 102418
08:00+15в3567100 0.0 1025203
11:00+20ююв334893 0.0 1027999
14:00+22в2339100 0.0 10261891
17:00+23в333754 0.0 10252115
20:00+20в22515 0.0 102628
12 мая, ср
ср1223:00+16св22606 0.0 102719
02:00+15ссв336420 0.0 102729
05:00+14св34735 0.0 102763
08:00+17в58635 0.0 1027319
11:00+21вюв45516 0.0 1028976
14:00+24вюв33415 0.0 10271851
17:00+24в33385 0.0 10262088
20:00+21вюв345323 0.0 102662